Theta_e
320 320 320 320 319 317 319 324 325 326 334 334 327 327 330 329 330 335 336 333 336 339 343 352 354 349 349 350 352 355 355 356 358 358 356 353 352 353 351 347 345 347 348 347 347 348 348 349 350 350 350 349 349 349 349 349 350 350 350 351 351 351 351
319 320 320 319 319 321 319 318 324 330 332 332 329 327 331 330 328 331 333 331 332 332 336 352 359 353 352 353 353 356 356 355 356 357 357 356 355 354 353 349 346 346 347 347 347 347 348 348 349 349 349 349 349 350 350 350 351 351 351 351 351 351 351
319 319 319 318 319 321 319 320 327 329 323 324 326 326 328 329 329 330 332 334 333 330 333 348 358 356 356 355 355 356 356 355 354 355 358 358 357 357 355 352 349 347 346 347 347 347 347 348 349 349 349 350 350 350 351 351 352 351 351 352 352 350 350
319 320 319 316 316 319 320 323 326 325 322 322 323 324 324 325 328 328 330 334 334 334 340 352 358 358 357 356 357 356 356 355 353 354 356 357 357 358 358 355 353 351 349 347 346 347 347 346 347 348 348 349 350 350 350 350 351 352 351 351 351 350 350
317 318 320 318 319 319 318 320 320 319 321 323 323 325 324 325 328 328 327 328 331 338 347 354 357 357 356 356 357 357 355 354 353 353 354 356 355 354 355 355 354 353 352 351 348 347 345 344 344 345 346 348 349 350 350 349 350 351 351 350 350 349 349
315 317 320 320 322 322 320 320 320 318 320 320 318 322 327 328 328 329 326 323 329 341 346 349 353 355 355 356 355 356 356 354 353 352 352 354 354 353 354 354 353 353 353 353 352 348 346 345 343 343 344 346 347 348 349 350 350 351 351 350 349 349 348
318 320 320 318 317 320 321 320 321 322 323 320 314 316 326 329 329 331 328 323 332 344 345 347 352 354 354 355 355 355 356 354 353 352 350 352 353 354 356 356 355 355 355 354 352 348 348 347 344 342 344 345 345 346 347 348 350 350 349 349 348 348 349
320 320 319 319 317 319 319 318 320 321 319 320 319 322 328 328 327 331 326 324 336 346 346 348 350 351 353 354 355 355 354 354 353 352 351 352 352 353 355 355 356 356 356 355 352 349 349 349 346 345 346 345 345 345 346 346 347 347 347 348 348 348 348
317 317 316 317 319 320 320 320 321 320 322 327 328 332 334 328 329 332 324 322 336 346 346 348 349 350 352 352 352 352 352 352 351 351 351 352 352 353 353 353 354 355 354 354 353 351 351 350 349 348 347 345 344 345 345 345 346 346 347 348 348 347 346
316 318 318 317 319 321 320 323 325 323 326 330 329 331 329 326 334 337 324 323 340 348 347 348 350 351 352 350 349 348 348 348 348 349 350 351 351 351 351 351 351 351 352 352 352 351 351 351 350 349 348 345 344 344 345 345 346 346 347 348 348 348 346
318 320 321 319 322 324 322 324 328 328 329 330 332 330 324 326 335 335 331 336 346 350 349 349 350 350 349 349 347 346 346 345 345 346 346 347 346 345 346 346 346 348 349 351 351 351 352 352 351 350 349 348 348 347 347 347 347 347 347 346 346 347 346
318 320 321 321 323 326 326 327 329 332 334 333 331 327 327 334 332 328 339 348 346 347 349 349 350 348 346 347 345 345 344 342 343 343 343 344 343 342 343 344 345 347 347 348 348 348 350 352 352 351 351 351 350 350 350 349 349 349 348 346 346 348 348
320 320 319 321 325 326 328 330 330 333 336 336 334 331 335 341 331 327 343 351 346 347 349 347 349 347 345 345 343 342 342 341 341 342 343 343 342 342 343 344 344 344 343 343 343 344 347 349 350 351 350 351 351 351 351 351 351 351 351 350 349 350 349
321 322 320 321 325 325 327 331 331 333 336 337 338 339 341 343 340 338 345 350 348 348 346 346 347 345 343 342 341 340 341 342 342 342 343 342 342 342 342 342 341 340 341 341 342 343 345 346 347 348 349 350 350 349 350 350 351 352 352 351 350 351 351
318 322 322 321 324 325 324 326 329 333 336 337 339 341 342 343 345 345 345 348 349 347 345 345 344 342 341 340 340 341 341 342 342 341 341 340 340 340 339 338 339 339 341 342 342 343 344 344 345 346 348 349 348 347 348 349 350 351 350 350 350 349 350
320 321 322 322 324 325 322 322 325 329 334 337 338 339 341 342 345 347 345 345 346 345 344 344 341 340 341 340 340 341 340 341 341 341 340 339 338 337 336 337 338 339 340 340 340 341 341 341 342 343 343 344 345 346 346 347 349 349 349 350 349 349 349
325 322 322 325 324 323 323 321 321 325 330 336 339 339 339 339 341 344 342 341 343 345 343 343 342 340 340 340 339 338 338 339 339 339 339 338 337 337 336 336 336 336 338 339 338 338 338 338 338 338 339 340 341 342 343 344 345 346 347 347 347 347 348
330 326 325 326 325 324 324 320 319 322 324 330 339 339 337 337 339 340 341 340 342 344 343 343 343 340 338 336 335 334 335 335 335 335 335 335 335 335 334 333 333 334 337 337 336 335 335 335 334 334 335 335 335 337 338 339 341 341 341 341 342 343 344
334 335 329 324 326 327 323 319 321 322 319 321 333 337 335 336 338 339 340 341 341 343 343 341 340 337 333 331 330 329 330 332 333 332 331 332 333 333 332 331 332 334 334 335 334 333 332 331 329 329 330 330 330 330 331 333 334 335 335 335 335 336 337
329 334 330 325 327 327 323 322 323 322 318 320 329 336 335 334 335 337 340 341 341 341 339 337 335 332 329 328 327 326 327 329 330 330 329 329 330 331 331 330 331 333 332 332 332 331 329 327 326 326 326 326 326 326 326 327 328 329 329 329 328 328 328
324 328 327 325 326 324 324 325 323 321 321 320 324 332 335 332 331 334 338 340 339 337 335 333 330 329 329 330 327 325 324 326 326 327 328 327 328 329 329 329 330 330 330 330 329 328 326 325 324 324 324 323 323 323 323 324 324 325 325 325 324 323 323
323 325 323 324 324 323 324 324 322 322 322 319 319 326 332 333 330 331 336 339 337 335 333 331 330 332 335 335 330 325 323 324 324 325 325 325 326 326 326 328 329 328 329 329 327 325 324 323 323 323 323 323 322 322 321 321 321 322 323 324 323 322 322
322 324 322 323 325 326 326 324 322 322 320 318 320 322 326 330 330 329 333 337 336 334 333 331 333 337 340 338 331 324 322 323 322 323 323 324 325 325 326 327 328 328 329 328 326 325 324 323 323 323 323 322 322 321 321 321 320 320 321 321 322 322 322
322 322 321 322 324 325 325 323 322 321 319 320 322 321 321 325 328 328 330 334 335 334 333 333 336 340 342 340 331 323 322 323 323 323 324 324 325 325 325 327 327 328 327 327 326 326 324 324 323 322 321 321 321 321 322 322 322 322 320 319 319 321 321
318 318 319 321 322 322 322 322 322 321 320 321 324 324 323 324 326 328 329 331 333 333 332 334 337 338 339 336 328 322 323 324 323 323 323 324 324 324 325 326 326 326 326 325 325 324 323 322 321 320 320 320 320 320 321 321 321 321 320 319 318 319 320
316 316 317 318 319 320 320 321 323 323 322 321 323 324 323 322 325 328 328 327 329 331 331 331 332 331 331 328 323 321 323 323 322 321 322 323 324 324 325 325 325 324 324 324 323 323 322 321 320 320 319 319 319 319 318 319 319 318 319 319 319 319 319
316 316 315 315 319 321 319 321 325 325 324 323 322 323 323 322 322 326 329 327 327 329 328 327 327 327 327 324 322 321 322 321 321 322 323 324 324 324 324 324 323 323 323 322 322 322 321 321 321 320 319 319 319 318 317 317 317 317 318 318 318 318 318
317 316 316 318 320 321 319 321 324 324 322 322 321 322 323 323 322 324 328 328 327 328 327 325 324 326 325 322 321 320 319 320 321 322 322 323 323 323 323 323 323 322 321 320 320 319 319 319 320 320 319 319 319 317 316 316 316 316 316 316 316 317 317
318 318 319 320 320 319 318 320 321 321 319 319 319 320 321 321 320 322 327 329 327 327 326 324 324 324 323 320 319 319 319 320 321 322 322 322 322 322 322 321 321 321 320 319 318 317 317 317 317 318 318 318 318 316 315 315 314 314 314 314 315 317 317
319 319 319 319 320 321 320 319 319 319 319 318 317 319 320 319 319 320 325 328 327 326 325 324 324 323 320 318 318 318 319 320 321 321 321 321 321 321 320 320 320 319 319 319 317 317 316 315 315 316 315 316 316 315 314 314 314 314 313 314 315 317 317
320 320 320 321 321 321 320 320 320 319 318 317 317 318 319 318 319 321 324 326 326 325 324 324 323 321 319 320 319 319 319 320 320 321 321 320 320 320 319 318 318 318 319 319 318 317 316 315 315 314 314 314 314 314 314 315 314 313 313 314 315 316 317
320 321 321 320 320 320 319 319 320 319 318 318 318 317 317 317 319 321 322 323 324 324 324 323 322 320 319 320 320 319 320 321 321 321 321 321 320 319 318 317 317 318 319 319 318 317 316 315 314 314 314 314 313 313 314 315 314 313 313 314 314 315 316
321 321 320 319 320 320 319 319 320 319 319 320 320 319 317 317 318 319 320 321 323 323 323 323 322 320 319 320 320 319 321 322 322 321 321 320 319 318 317 316 316 317 317 317 317 316 315 314 314 313 313 312 313 313 314 314 314 314 314 314 314 314 315
322 321 322 322 322 322 320 319 319 319 319 320 321 321 319 318 317 318 319 319 320 322 322 322 322 321 320 321 321 321 321 321 321 320 320 320 319 317 316 315 315 315 315 315 315 315 313 313 313 312 311 311 312 313 314 314 314 314 314 314 313 314 314
321 321 322 323 322 322 321 320 319 319 319 319 321 321 321 319 318 318 319 319 319 320 320 320 321 322 321 320 321 321 321 320 320 320 320 320 319 317 315 314 314 314 313 313 314 313 313 313 313 312 310 310 311 312 312 313 313 313 313 313 313 313 314
320 321 323 323 322 321 321 319 320 320 320 320 320 320 320 320 319 319 319 319 319 319 320 319 319 320 321 320 320 320 320 319 319 320 320 319 318 317 315 314 314 313 313 313 313 313 313 313 312 311 310 309 310 310 311 311 312 312 312 312 312 312 313
321 322 322 321 321 321 320 319 320 320 321 321 321 321 321 321 320 318 319 319 319 319 320 320 319 319 319 319 319 320 320 319 319 319 319 319 318 316 315 314 314 313 312 312 313 312 312 311 311 310 310 309 309 310 310 310 311 312 312 311 312 312 313
Wind_Speed
9 12 10 9 7 4 4 5 6 2 0 3 3 2 2 1 3 3 3 4 1 1 2 1 1 3 7 10 12 13 13 13 12 9 9 9 9 9 9 9 9 12 15 16 17 18 19 19 19 20 22 25 28 28 28 28 27 27 28 28 28 27 27
6 4 7 8 4 4 5 6 6 4 1 1 1 2 3 2 4 2 3 6 3 2 2 2 3 5 8 10 12 13 13 14 13 10 8 8 8 9 8 8 9 11 14 15 16 17 18 19 20 23 26 26 26 25 25 26 26 27 28 28 27 28 28
3 3 5 5 2 2 1 4 8 5 3 3 2 2 3 4 3 2 3 4 4 4 3 2 5 6 8 10 11 12 14 15 13 10 9 8 8 7 7 7 7 9 12 14 15 16 17 18 18 19 21 20 20 20 21 23 23 25 26 25 25 27 27
3 5 6 7 6 3 1 4 8 3 2 4 3 2 2 3 3 3 3 3 3 4 1 1 5 7 7 10 10 11 14 15 13 11 10 9 8 6 5 5 5 5 8 10 13 14 16 18 18 17 17 17 16 18 19 21 22 23 24 23 24 27 26
4 6 5 6 9 9 5 6 8 4 1 2 2 2 0 1 3 3 4 4 2 1 1 1 4 6 7 9 9 10 12 14 13 12 10 9 8 8 6 5 5 4 5 7 9 12 15 18 19 19 18 16 16 17 19 22 22 21 22 23 25 27 26
5 3 1 3 6 8 8 7 8 8 5 4 5 4 1 1 1 2 3 4 1 2 1 1 4 6 6 8 9 9 11 13 13 11 10 9 8 8 7 6 6 6 6 7 8 11 14 17 19 21 20 20 20 21 20 20 19 19 21 24 26 26 25
2 1 2 1 2 2 3 3 5 7 6 6 8 6 4 3 1 0 1 3 0 2 1 2 4 5 6 7 9 9 9 11 11 10 9 7 7 8 7 7 9 10 10 10 10 12 13 15 19 20 20 21 24 24 23 22 20 21 23 23 23 23 23
1 0 2 3 1 2 3 2 2 2 3 3 3 3 4 6 4 3 3 3 1 2 0 2 5 6 6 6 8 9 8 8 9 10 9 7 7 8 8 7 8 10 10 10 12 15 14 14 17 18 19 22 23 24 25 25 25 25 24 22 21 20 20
4 4 4 5 2 1 2 2 4 2 1 3 4 3 3 5 4 3 5 5 2 3 2 4 7 8 8 7 7 8 8 8 8 9 9 9 8 9 9 8 8 9 10 10 11 14 15 13 15 18 19 21 21 22 24 26 27 26 23 20 20 20 20
4 4 4 3 1 2 1 2 5 4 1 2 3 3 3 5 3 2 5 3 2 3 5 7 8 10 10 8 8 8 8 8 8 8 8 8 8 9 10 10 9 9 9 8 7 10 13 14 17 21 22 24 25 25 26 27 26 25 21 18 17 17 16
3 1 1 2 2 1 2 4 7 5 3 2 0 3 4 4 5 4 4 2 4 7 9 10 10 10 10 9 8 8 8 8 8 8 8 8 8 8 8 8 8 7 7 6 4 4 8 12 15 17 19 21 22 23 25 25 23 21 18 17 17 16 18
5 2 0 1 2 6 7 7 8 7 5 2 2 3 3 4 6 5 3 6 7 9 12 12 11 10 9 9 9 9 9 9 8 8 9 9 9 8 7 7 7 7 6 5 4 3 4 7 10 10 10 13 14 14 17 18 16 14 15 18 20 18 20
5 5 4 2 4 8 10 12 12 10 8 4 1 1 2 2 3 2 4 9 7 7 12 13 10 10 10 10 10 9 9 9 10 10 10 10 10 9 8 7 7 7 5 5 5 3 2 3 5 6 8 10 9 7 8 10 10 10 12 15 17 17 18
4 7 6 3 4 8 13 15 14 12 10 8 6 4 4 3 2 2 4 8 4 4 11 12 9 9 10 9 9 9 10 11 11 11 11 11 10 9 8 7 7 8 7 6 6 5 4 3 3 5 7 8 5 5 6 9 10 11 14 16 17 18 18
4 8 7 3 3 7 14 17 16 15 12 10 9 6 5 5 3 2 6 8 5 4 9 11 9 9 10 10 10 10 10 10 11 12 11 10 9 7 6 6 7 8 8 8 7 7 6 4 4 3 2 3 7 7 8 10 11 11 14 15 16 16 15
3 7 9 6 1 2 11 16 16 15 13 8 7 7 6 5 3 4 7 6 3 5 9 10 9 9 11 12 11 9 9 9 11 12 11 9 7 6 6 6 8 9 9 9 8 8 7 7 7 6 7 10 11 9 7 8 9 9 10 10 10 11 11
2 7 9 7 2 1 6 11 10 9 9 7 4 5 7 6 4 1 2 3 3 9 11 10 10 10 10 10 9 7 8 8 9 11 11 9 8 7 6 6 8 9 9 10 9 9 10 10 11 11 12 14 13 12 11 10 11 11 10 8 8 7 8
1 5 7 5 4 3 2 4 5 3 5 8 5 4 6 6 5 3 3 2 7 12 12 11 12 9 7 6 5 5 6 7 8 9 10 10 9 8 7 7 8 9 10 11 11 12 13 14 15 18 19 18 18 18 18 17 17 17 16 15 14 14 12
2 1 3 1 1 2 3 1 4 2 1 5 3 3 6 8 6 5 4 4 9 11 10 11 10 8 7 7 6 5 5 6 8 9 9 8 9 8 7 7 9 10 11 12 12 13 14 15 16 19 20 20 20 20 21 22 22 22 22 22 21 20 19
1 2 1 2 1 2 1 1 4 3 1 4 1 3 7 10 7 4 5 8 9 9 10 10 9 9 9 8 6 5 4 4 6 8 8 7 8 8 7 9 10 11 12 13 13 14 17 19 19 19 20 21 22 22 22 24 23 23 24 24 23 22 21
0 2 2 1 1 2 2 1 3 3 2 4 3 1 5 8 7 3 5 9 10 10 10 10 10 10 9 7 5 4 3 3 4 5 7 7 8 9 9 10 12 13 14 16 17 18 21 25 25 25 25 25 25 25 26 25 24 23 23 22 22 22 22
1 1 4 3 4 4 2 2 4 3 3 4 4 2 2 6 7 3 3 9 11 11 11 11 11 9 6 4 2 3 4 4 5 6 7 8 9 10 12 13 14 14 14 17 19 21 25 27 26 24 24 24 25 25 25 24 24 23 22 20 19 20 19
0 2 3 3 3 2 1 5 8 6 3 3 4 2 2 5 6 4 2 7 10 11 12 13 11 8 6 4 4 4 5 5 5 6 7 8 9 10 11 13 14 14 14 16 18 20 22 23 22 21 20 20 22 22 21 20 20 21 20 19 19 19 18
2 1 2 2 1 2 3 7 10 8 3 2 3 1 2 4 5 3 2 5 8 9 11 11 9 6 5 6 6 6 6 5 5 5 7 7 9 10 11 12 14 15 15 16 16 16 16 17 18 21 22 23 22 20 17 16 16 16 17 15 15 17 19
2 2 3 2 1 1 3 7 10 8 2 2 1 1 1 3 4 2 2 3 5 7 8 7 3 1 4 7 9 9 9 7 4 4 6 8 8 10 11 13 15 16 15 15 15 15 16 17 19 21 23 24 23 20 18 17 16 15 17 17 15 15 17
2 2 2 2 1 2 4 8 8 4 2 1 2 2 1 2 3 1 3 3 3 4 4 1 2 3 6 8 9 9 9 9 6 4 6 8 8 9 11 13 16 17 15 15 16 15 15 17 18 18 21 23 23 22 21 19 17 16 16 17 17 16 16
1 1 2 1 2 3 4 8 5 2 2 2 2 2 2 2 2 3 4 5 3 3 3 2 4 7 8 8 9 9 8 9 8 6 7 8 9 10 11 11 14 17 16 14 14 13 12 13 13 14 18 21 21 21 21 18 16 15 14 15 16 17 16
0 1 2 2 1 2 5 5 3 3 3 2 1 2 2 1 1 2 3 5 4 3 4 5 6 10 11 10 10 10 8 7 8 8 7 7 8 10 10 10 12 15 17 15 14 13 13 13 12 12 15 18 19 19 19 17 15 14 14 14 15 15 15
1 2 2 2 2 2 3 2 1 2 3 2 2 3 2 2 2 1 2 3 5 4 5 7 7 9 11 11 11 11 10 8 9 9 9 7 7 9 10 11 12 14 15 15 15 15 14 13 13 13 14 17 19 19 17 15 14 14 13 13 14 13 13
1 1 2 2 2 2 3 2 0 1 2 2 2 2 2 3 3 2 1 3 5 5 6 7 7 7 9 11 11 10 10 9 9 10 10 10 10 10 10 12 13 13 14 14 14 15 15 14 14 14 14 16 18 17 15 13 12 12 12 12 12 12 11
1 1 1 1 2 2 4 3 0 1 1 2 2 2 2 3 4 3 1 2 5 6 6 7 8 8 10 11 10 10 9 10 10 11 11 11 11 12 13 14 14 13 12 12 12 13 14 13 14 15 16 16 17 15 13 11 10 9 10 10 10 10 9
0 1 2 1 2 2 3 3 1 1 2 3 2 2 2 2 3 3 2 1 3 5 6 7 9 10 10 10 10 9 8 10 11 11 12 12 12 13 15 16 15 13 11 11 11 12 13 13 13 15 15 15 14 12 11 9 7 7 8 8 8 7 7
1 1 2 2 1 1 0 1 1 1 2 2 2 3 3 4 4 4 3 3 1 2 4 6 9 9 9 10 12 11 9 10 11 12 13 14 14 16 18 17 14 12 12 12 12 12 13 12 12 12 12 12 10 10 9 8 7 7 8 7 7 6 5
2 2 3 4 2 1 2 1 0 1 2 2 2 3 4 4 4 3 3 3 2 2 1 4 6 8 8 10 12 12 10 11 14 15 15 15 16 18 18 17 14 12 11 12 13 13 13 12 11 10 10 9 9 8 8 8 7 8 7 6 6 5 5
1 1 4 4 1 1 3 3 1 0 2 3 3 4 4 4 3 2 2 3 2 0 1 3 5 6 8 11 13 11 10 12 14 16 17 18 18 18 18 18 16 12 11 11 12 13 13 11 9 8 8 7 7 7 6 7 7 7 6 5 5 5 5
1 1 3 4 2 2 3 3 1 1 0 1 3 3 3 3 3 2 1 1 2 3 3 3 4 5 7 11 13 11 11 13 14 15 16 17 18 18 19 19 18 16 15 15 14 14 14 12 10 8 7 5 4 4 4 4 5 6 6 5 4 4 3
1 1 3 3 2 3 3 2 1 1 0 1 2 2 2 3 4 4 3 3 1 1 4 4 4 4 6 10 11 11 12 14 16 16 15 15 15 17 19 20 20 20 20 20 19 18 17 15 12 10 8 6 5 4 3 3 3 4 4 4 4 3 2
Wind_Direction
190 183 170 167 186 181 146 184 202 199 182 150 134 138 105 136 203 164 188 236 262 206 194 100 106 166 173 185 185 176 167 156 158 179 188 184 181 176 178 184 185 188 188 190 194 195 195 195 196 198 202 206 206 207 209 208 209 211 212 213 215 215 217
211 183 158 168 195 160 147 190 176 111 29 304 117 179 148 189 222 172 202 241 252 218 215 108 121 150 161 176 179 169 161 159 166 177 176 170 164 161 168 177 183 186 187 190 194 194 196 196 198 202 205 207 207 206 207 207 207 210 212 213 214 216 219
166 116 157 164 185 207 177 174 160 144 201 196 154 200 177 172 210 195 199 243 257 225 224 137 149 155 159 171 174 167 165 168 169 168 166 165 155 146 153 163 173 183 186 190 193 192 195 197 198 202 202 201 202 203 206 207 207 210 212 211 212 217 219
121 150 185 190 180 193 339 153 170 190 248 186 166 183 185 175 193 208 194 217 235 215 263 19 161 155 157 168 173 175 175 174 170 165 165 165 155 148 151 147 137 152 170 182 190 192 195 198 200 200 197 195 197 200 206 208 207 209 211 211 213 218 220
182 178 192 203 180 174 190 178 175 184 169 171 172 137 114 201 184 195 214 225 219 147 28 340 160 154 164 169 170 178 182 179 174 169 169 162 159 166 168 150 122 121 142 163 184 193 196 200 203 202 198 194 193 198 206 210 210 208 210 213 217 219 221
192 170 82 231 202 183 190 191 185 184 165 157 184 179 148 244 206 192 230 236 187 88 17 249 165 157 164 164 168 176 181 180 173 169 173 167 165 175 174 161 155 158 158 157 173 188 192 195 200 202 200 198 200 204 206 207 205 206 210 215 220 221 223
220 314 20 336 270 169 157 183 190 181 171 178 197 196 160 163 212 70 260 259 198 71 339 204 160 155 157 160 167 169 172 176 169 163 167 156 146 159 162 159 162 164 163 159 169 187 194 193 195 199 199 201 206 208 207 205 204 210 215 217 220 221 222
41 69 99 96 93 137 125 71 46 176 204 196 198 195 162 175 187 165 202 237 162 103 81 147 143 149 154 152 156 156 155 161 160 161 166 154 137 142 144 146 153 156 159 160 168 184 194 193 192 197 199 201 204 205 208 209 210 214 215 212 214 216 217
127 138 134 128 115 55 98 63 16 325 239 120 120 104 150 189 189 175 215 225 137 107 144 148 146 155 156 144 145 150 144 139 144 153 164 161 150 146 145 146 147 151 161 166 170 180 184 183 189 200 203 200 204 211 214 214 215 215 211 206 208 212 216
139 141 127 135 101 1 4 25 7 354 62 141 143 131 175 202 166 164 226 225 107 136 169 164 160 162 156 145 141 141 134 134 136 137 146 146 140 140 140 141 143 147 158 161 162 172 177 180 190 200 203 203 209 215 216 216 215 210 203 201 207 216 226
79 93 52 316 304 19 30 10 11 12 358 313 233 157 183 181 149 184 227 163 142 180 182 173 168 164 154 146 143 138 131 130 126 124 126 123 120 123 127 132 137 133 130 133 145 175 183 190 198 202 203 202 202 205 207 210 211 204 200 211 222 231 242
68 51 28 313 43 70 54 30 26 21 6 326 222 190 166 143 162 198 189 156 174 187 181 178 174 163 151 147 149 143 137 132 126 125 123 120 121 123 126 134 130 115 110 125 149 185 192 195 206 212 209 200 195 199 205 208 206 198 199 215 224 227 232
66 58 61 73 86 77 59 45 37 26 21 32 90 94 53 113 198 245 163 171 185 175 171 175 170 158 150 148 149 142 137 133 131 133 130 129 133 132 136 143 130 124 138 147 143 147 151 167 193 210 217 213 202 196 205 209 208 199 194 203 212 212 216
50 53 59 94 106 75 56 46 35 29 35 43 56 69 41 13 341 345 149 156 131 134 167 167 155 152 148 144 144 141 141 140 137 137 135 134 138 138 140 138 126 132 147 147 140 137 129 126 151 190 218 223 194 148 169 192 191 187 186 189 195 200 206
25 31 30 50 98 71 55 43 29 25 29 30 34 34 6 354 14 77 125 126 95 121 159 150 138 142 143 142 142 141 143 144 140 138 136 134 136 136 134 122 117 126 129 130 132 125 113 106 109 130 158 152 144 147 171 186 181 179 184 187 191 194 195
359 3 1 359 314 86 49 34 21 16 20 23 27 23 7 356 19 91 118 118 118 147 145 135 130 135 140 143 143 144 148 148 146 143 137 133 133 133 130 118 118 124 119 115 118 111 100 89 77 74 84 100 120 141 155 160 165 172 181 186 191 194 189
313 336 343 351 349 95 39 21 2 0 16 23 39 36 20 2 355 28 85 60 130 153 144 134 137 140 140 144 145 149 150 145 143 142 137 136 137 137 131 114 109 113 109 106 104 96 88 79 72 76 87 96 106 117 116 117 126 135 141 148 155 165 172
200 317 330 354 26 48 74 21 340 325 14 24 44 51 10 349 341 339 351 55 148 160 152 143 148 145 133 130 127 129 140 139 134 135 138 142 143 138 131 116 103 101 104 105 100 91 85 81 82 89 96 98 100 104 106 110 116 119 119 118 119 119 122
152 318 324 276 59 57 146 120 350 326 30 19 53 91 25 6 3 8 32 115 147 151 139 134 141 132 109 98 90 100 126 137 135 137 141 145 146 143 131 117 105 101 104 104 99 94 91 88 88 91 95 97 96 93 96 101 104 107 107 105 104 104 105
148 148 140 191 164 41 129 186 356 6 14 358 14 111 40 15 358 16 80 118 130 123 115 115 118 114 103 89 77 87 109 129 144 147 146 144 146 141 128 114 109 107 108 105 102 99 98 97 95 92 92 94 92 88 89 90 90 92 95 95 92 92 93
143 139 104 117 156 79 94 61 9 12 347 338 329 106 42 17 354 12 113 134 132 118 111 113 115 115 106 88 69 80 109 130 138 133 128 126 124 120 114 108 106 106 106 107 105 102 100 100 100 100 99 97 93 89 87 85 82 80 82 84 84 84 86
324 150 125 140 175 161 118 351 337 330 294 288 264 210 63 24 2 357 134 141 137 132 130 129 129 124 115 112 120 128 138 136 124 113 111 110 110 110 112 112 110 108 108 110 110 108 106 105 105 107 106 102 95 89 85 83 81 74 69 72 79 81 82
172 180 152 153 167 139 21 318 313 321 317 248 232 224 50 27 1 339 167 147 147 151 147 144 149 149 148 160 158 143 138 126 115 112 107 105 110 113 117 119 116 111 109 111 112 111 110 111 113 113 111 107 102 94 88 86 84 77 71 70 77 83 84
116 152 135 109 82 56 339 311 315 329 351 177 212 256 30 22 360 334 229 166 159 161 157 157 167 172 163 158 143 123 113 97 84 95 107 112 119 119 117 118 115 112 110 108 107 106 107 111 115 113 110 108 105 101 97 93 88 86 87 85 84 88 88
88 90 105 103 75 30 321 307 314 323 315 166 142 22 19 349 342 316 231 198 169 166 169 169 172 118 118 134 134 127 121 114 97 111 124 124 121 118 117 119 119 116 112 107 105 106 109 113 114 111 108 104 101 100 97 92 90 95 102 104 102 96 90
62 71 91 99 113 79 333 306 302 301 262 159 51 16 279 276 293 235 192 188 171 169 174 137 63 94 114 120 127 133 136 134 136 150 139 124 113 110 113 120 122 117 111 108 108 109 112 113 111 109 107 104 103 101 97 95 97 100 100 100 99 96 94
57 104 102 93 119 91 351 318 309 355 20 48 35 336 282 237 253 233 185 169 161 167 162 101 103 134 136 127 130 140 144 139 138 146 143 129 120 116 114 118 121 117 110 105 104 105 107 108 107 108 107 106 105 104 103 103 104 101 99 98 96 93 92
321 76 90 57 18 14 351 343 15 43 12 1 317 300 306 327 283 243 195 170 155 158 152 132 133 145 147 146 146 142 141 143 141 136 130 124 126 127 119 115 117 116 113 107 103 105 109 109 107 108 108 107 106 105 107 110 109 104 102 101 97 92 88
309 359 31 14 328 317 330 351 25 1 345 328 282 279 294 333 349 293 220 171 151 150 145 135 137 145 147 150 152 146 145 153 148 134 127 128 130 127 120 117 117 115 114 111 107 105 109 112 111 111 112 111 108 108 111 113 111 107 104 99 93 89 84
187 329 343 329 322 344 358 2 253 309 344 351 321 313 328 341 334 309 255 167 149 150 150 143 138 139 142 143 145 146 144 146 145 138 136 137 136 129 125 125 124 120 116 114 110 107 108 110 111 112 115 113 110 111 113 110 105 103 100 96 92 88 85
190 151 120 355 347 358 354 355 114 132 33 26 355 355 10 355 332 323 319 158 151 148 150 148 139 140 144 140 139 143 144 146 157 158 149 145 145 142 140 141 139 134 126 119 114 111 108 108 108 110 111 112 112 113 111 105 100 97 93 91 91 88 85
175 113 115 33 345 334 333 345 27 75 55 63 65 46 39 33 21 15 17 61 153 156 157 152 144 147 154 149 144 151 154 155 164 165 155 149 148 143 143 146 146 141 132 126 123 119 116 115 115 112 110 112 113 113 111 109 105 97 92 90 88 84 79
170 182 177 188 247 266 271 3 7 26 30 45 75 87 76 65 62 54 36 27 32 184 175 161 151 151 160 161 159 163 166 163 164 164 157 153 151 148 148 150 151 150 145 140 136 132 129 129 125 119 116 115 115 114 115 116 113 106 101 94 85 78 72
216 200 173 172 191 208 156 147 120 34 353 343 29 68 64 58 69 83 76 54 19 328 240 187 169 159 164 172 171 169 172 172 167 163 159 155 153 154 156 154 155 161 163 156 149 144 143 144 138 130 125 120 118 118 117 114 113 110 105 96 86 77 70
246 160 159 163 169 99 140 158 171 7 335 339 12 36 39 38 49 82 110 108 108 166 251 234 211 180 171 177 178 175 175 173 168 166 165 163 160 162 164 160 157 164 174 173 166 161 159 158 151 143 138 129 121 119 115 112 111 108 102 94 86 77 71
117 165 171 169 154 113 138 163 168 83 346 350 17 24 24 26 21 7 24 108 143 162 179 216 228 210 187 183 183 182 176 172 174 175 173 168 166 167 169 167 167 175 186 188 184 179 175 173 170 166 161 154 142 133 123 115 110 102 96 92 87 79 75
133 158 156 161 146 105 111 134 117 98 172 296 19 31 28 27 26 25 27 27 26 167 172 178 190 202 198 192 191 189 183 180 182 182 177 173 172 173 176 178 182 188 191 191 192 191 186 183 184 182 178 178 177 171 165 151 128 108 95 92 87 76 66